Hourly Data Report for October 06, 2017

All times are specified in Local Standard Time (LST). Add 1 hour to adjust for Daylight Saving Time where and when it is observed.

GRISE FIORD CLIMATE
NUNAVUT

76°25'22.040" N
82°54'08.020" W
44.50 m
2402351
71971
NGC

Download Data

Hourly Data (October 2017)
Hourly Data Report for October 6, 2017
Temp Definition
°C
Dew Point Temp Definition
°C
Rel Hum Definition
%
Wind Dir Definition
10's deg

Wind Spd Definition
km/h
Visibility Definition
km
Stn Press Definition
kPa
Hmdx Definition


Wind Chill Definition


Weather Definition


TIME
00:00 -1.8 -9.4 56 6 11   100.88   -6 LegendNANA
01:00 -2.4 -9.4 59 9 16   100.85   -8 LegendNANA
02:00 -4.4 -10.0 65 5 21   100.81   -11 LegendNANA
03:00 -4.0 -10.1 62 5 19   100.76   -10 LegendNANA
04:00 -5.2 -9.9 69 6 9   100.72   -9 LegendNANA
05:00 -4.1 -10.0 64 6 8   100.67   -8 LegendNANA
06:00 -5.1 -10.5 66 4 21   100.64   -12 LegendNANA
07:00 -4.5 -10.6 62 6 11   100.58   -9 LegendNANA
08:00 -4.0 -10.7 59 6 17   100.54   -10 LegendNANA
09:00 -6.7 -10.5 75 14 6   100.50   -10 LegendNANA
10:00 -5.5 -10.3 69 11 6   100.44   -8 LegendNANA
11:00 -4.5 -10.0 65 18 8   100.39   -8 LegendNANA
12:00 -4.3 -9.0 70 15 11   100.35   -9 LegendNANA
13:00 -3.5 -9.2 64 17 8   100.32   -7 LegendNANA
14:00 -4.6 -9.1 71 15 5   100.32   -7 LegendNANA
15:00 -6.1 -7.7 88 16 8   100.31   -10 LegendNANA
16:00 -6.5 -7.9 90 14 3   100.30   -8 LegendNANA
17:00 -6.3 -6.6 98 21 6   100.29   -9 LegendNANA
18:00 -6.5 -6.8 98 17 2   100.26   -7 LegendNANA
19:00 -6.6 -7.0 97 13 5   100.26   -9 LegendNANA
20:00 -6.7 -7.1 97 13 3   100.27   -8 LegendNANA
21:00 -6.7 -7.1 97 15 4   100.25   -9 LegendNANA
22:00 -6.8 -7.1 98 19 6   100.23   -10 LegendNANA
23:00 -7.7 -8.2 97 20 2   100.23   -9 LegendNANA

Notes on Data Quality.

Legend

  • E = Estimated
  • M = Missing
  • NA = Not Available
  • ‡ = Partner data that is not subject to review by the National Climate Archives
Date modified: